Wetbulb
53.82 54.27 54.68 55.39 55.87 56.03 56.35 56.50 56.54 56.58 56.57 56.91 57.36 57.91 58.06 57.54 56.41 50.12 45.66 51.30 55.75 60.35 59.43 52.89 50.08 47.67 46.81 43.83 43.17 41.68 34.08 31.65 33.29 35.37 35.25 37.50 36.84 40.76 42.29 39.46 41.89 42.88 41.28 43.33 45.40
53.46 53.66 54.03 54.41 55.10 55.61 55.76 56.04 56.23 56.36 56.48 56.72 57.11 57.94 56.64 55.12 49.20 46.32 53.41 60.32 60.70 61.03 50.73 46.99 45.75 46.05 41.38 41.78 40.68 37.90 32.73 34.10 35.64 33.85 33.53 37.39 37.18 37.94 37.17 37.32 39.67 40.39 41.65 42.62 43.87
53.38 53.32 53.48 53.96 54.29 54.82 55.20 55.56 55.97 56.15 56.27 56.25 56.99 57.81 56.17 51.85 44.39 44.88 57.68 60.03 60.76 60.07 52.00 49.37 47.26 46.18 40.63 40.69 38.73 35.33 32.49 36.82 37.59 38.56 38.89 38.23 37.37 39.78 36.44 36.21 38.93 39.57 40.57 41.09 41.39
53.45 53.70 53.55 53.64 53.78 54.30 54.70 55.14 55.66 56.10 55.85 56.03 57.17 57.13 55.05 47.43 36.63 47.99 57.79 59.22 59.65 55.63 50.57 47.61 45.44 42.61 38.57 36.72 39.97 34.91 38.31 39.24 40.67 40.50 39.23 37.13 38.86 37.62 37.84 38.76 42.30 41.68 41.63 40.65 40.88
53.20 53.84 54.00 53.91 54.00 54.10 54.34 55.05 55.57 55.83 55.89 56.04 57.09 56.50 47.80 41.20 41.72 50.35 56.06 54.47 52.55 50.84 48.07 45.98 43.86 42.21 37.34 38.61 39.38 36.31 37.16 39.99 40.33 40.02 38.52 40.36 36.71 36.46 37.19 40.00 41.75 42.19 42.38 41.07 40.86
53.45 53.95 54.16 54.25 54.25 53.94 54.23 54.95 55.40 55.70 55.91 55.95 56.99 55.77 44.37 36.50 48.64 49.49 49.08 50.48 49.85 49.05 46.73 46.29 42.91 43.35 40.36 39.08 37.32 37.96 38.74 38.67 38.84 38.16 39.24 37.64 35.74 37.44 37.86 37.75 40.43 41.18 40.57 40.71 40.56
53.61 54.07 54.31 54.52 54.36 53.83 53.71 54.78 55.39 55.55 55.94 55.58 56.56 48.81 42.51 39.37 46.74 47.48 48.93 48.79 49.24 48.63 45.63 46.85 46.04 42.54 40.78 37.56 40.67 39.19 34.97 36.29 36.91 37.59 36.57 37.05 33.38 34.59 38.43 39.06 39.23 39.24 40.04 40.75 40.86
54.15 54.20 54.27 54.76 54.66 53.88 53.48 54.60 55.06 55.51 54.75 55.09 54.75 44.36 37.79 47.38 45.85 47.18 48.53 48.61 49.65 48.73 46.92 46.82 46.76 43.49 40.41 40.50 38.96 35.06 33.67 28.93 35.17 36.10 37.56 34.44 28.54 37.16 39.14 36.92 37.51 37.28 36.57 38.07 39.07
54.42 54.19 54.36 54.85 55.02 54.12 53.61 54.79 54.79 54.58 54.75 54.71 44.61 41.04 36.63 50.32 44.53 46.23 46.96 45.34 46.92 47.05 46.74 48.00 44.91 40.54 40.05 34.23 30.99 31.59 25.42 27.74 32.07 36.33 35.04 33.03 29.67 35.31 37.19 36.51 35.57 35.43 35.93 37.14 37.76
54.56 54.22 54.35 55.04 54.95 54.15 54.52 54.88 53.55 52.11 50.17 48.10 45.64 38.53 41.12 40.36 43.43 45.20 46.66 46.70 44.06 43.51 43.49 42.49 39.25 33.80 32.83 30.76 26.08 25.80 24.94 27.84 27.46 32.00 33.59 31.15 31.34 34.65 35.81 35.69 35.73 35.01 34.99 35.28 36.42
54.91 54.44 54.57 55.09 55.02 53.63 49.17 45.46 43.14 41.41 41.44 37.52 38.61 39.13 40.95 43.70 45.47 43.87 45.35 44.84 44.06 39.73 33.17 37.29 32.74 28.24 30.00 31.64 31.51 29.50 27.70 25.93 29.15 33.41 31.50 29.33 29.57 32.74 34.65 34.17 33.50 34.63 34.19 34.93 36.04
55.20 54.71 54.90 55.01 54.45 53.18 47.26 41.88 41.91 42.07 35.00 40.74 41.27 41.14 42.84 43.01 39.77 41.67 45.67 40.25 38.83 32.35 36.01 33.27 28.89 33.03 35.30 34.31 32.62 30.51 27.38 26.71 29.42 33.72 31.94 30.48 31.29 33.55 33.77 33.89 34.99 34.90 34.90 34.99 34.94
55.38 54.79 54.87 54.73 53.60 47.77 45.51 44.18 47.49 44.91 37.15 37.82 40.30 40.94 41.08 42.39 37.90 38.05 42.43 39.48 36.26 33.74 32.76 30.04 32.07 36.17 34.33 31.68 31.23 28.65 26.81 25.16 25.99 30.99 31.42 29.78 25.37 28.57 32.70 33.77 34.95 36.33 35.54 35.45 35.30
55.60 54.88 54.64 53.85 47.29 46.17 43.92 48.25 48.25 46.11 30.96 34.92 36.01 39.82 41.96 41.50 35.65 42.11 41.76 38.87 35.81 32.76 31.33 30.28 34.26 33.41 31.17 31.18 30.84 27.06 31.21 30.00 29.43 26.58 23.00 27.97 22.49 25.20 29.55 32.31 33.99 34.95 34.37 34.33 34.54
55.55 54.96 54.55 52.51 45.62 43.08 46.76 48.52 47.56 44.98 23.16 36.22 36.05 43.47 41.06 38.47 37.76 37.49 41.62 39.66 33.00 32.55 32.11 29.63 29.50 29.66 29.79 30.61 32.41 29.11 32.18 29.27 28.88 26.88 24.73 25.44 19.85 26.26 28.50 29.52 32.43 33.44 34.44 33.78 34.42
55.17 54.71 53.92 48.23 44.27 45.99 47.89 46.89 45.63 31.05 22.79 29.19 35.99 36.19 36.21 37.10 36.88 38.13 37.66 39.59 38.07 33.21 32.23 30.35 34.40 32.19 30.99 33.04 33.06 33.84 30.28 29.82 28.46 25.86 14.27 25.41 20.38 23.68 26.29 28.96 29.92 32.33 33.15 34.71 34.35
54.93 54.43 50.09 47.70 41.98 47.01 46.98 43.30 29.13 23.13 32.42 28.88 30.47 35.13 33.98 33.35 34.64 34.86 33.72 31.31 28.62 24.81 22.61 29.12 29.11 31.65 33.55 29.83 32.30 30.66 25.16 15.48 17.26 15.68 16.92 24.01 19.87 25.49 28.26 29.82 30.92 32.56 32.99 34.05 34.47
54.75 53.83 49.20 46.62 47.78 47.01 44.88 34.73 18.16 23.86 27.23 34.07 34.12 33.97 31.93 34.32 33.14 33.86 30.76 28.06 29.88 29.24 20.68 22.05 23.40 28.70 32.69 30.15 28.17 27.31 24.89 17.27 15.04 16.16 18.25 22.73 21.38 27.48 30.30 32.14 33.63 33.95 34.40 34.49 33.66
53.83 46.71 45.24 46.10 47.60 47.40 38.97 20.50 25.37 28.82 34.77 32.83 33.37 28.62 29.12 33.00 32.77 32.00 29.66 27.69 29.91 30.22 26.88 22.40 23.18 30.16 32.18 32.58 30.46 27.86 23.58 27.53 17.26 13.53 17.12 21.14 25.69 29.73 31.08 31.43 32.30 33.43 34.12 33.28 33.18
47.53 45.29 44.55 47.15 47.47 45.24 33.57 28.61 26.90 37.83 36.15 34.42 30.38 31.90 27.64 30.19 31.03 30.47 30.00 32.72 31.56 31.88 30.03 26.79 22.28 27.63 29.69 32.47 31.63 28.98 30.12 21.58 19.42 15.74 15.13 18.74 21.48 25.06 28.13 29.53 31.31 32.61 32.75 32.13 31.81
47.46 41.15 43.73 46.04 46.54 38.86 28.24 26.80 31.96 39.43 37.52 33.82 31.12 30.85 32.51 30.77 32.36 30.76 31.36 31.08 32.15 30.37 30.95 26.18 26.64 25.06 26.64 25.71 25.80 25.29 23.16 24.86 25.12 21.62 15.69 13.21 22.93 29.20 29.98 30.58 31.09 32.40 33.28 31.61 31.55
44.64 33.47 43.71 45.34 32.40 26.20 24.88 30.91 38.29 37.18 37.08 36.29 37.95 36.68 33.07 33.39 32.07 32.13 31.37 31.97 33.62 32.27 28.17 29.03 26.58 19.43 21.95 26.82 29.55 28.45 27.04 25.86 19.78 17.25 17.43 19.11 22.81 31.77 31.41 31.49 32.12 32.43 33.13 31.60 31.38
40.11 38.42 43.23 41.90 31.07 27.21 26.03 34.52 37.23 34.70 35.07 35.74 36.96 38.17 37.65 34.46 31.54 32.23 31.66 33.35 33.18 32.06 29.26 30.08 23.43 17.93 23.43 25.63 27.24 25.73 27.39 27.96 25.33 23.33 16.33 18.99 24.51 33.07 30.00 30.32 31.54 31.90 32.56 32.98 32.15
38.80 31.20 35.60 36.99 31.74 29.57 26.44 30.07 32.13 37.33 36.10 36.46 36.47 37.05 36.94 32.56 33.71 29.89 29.68 32.85 33.55 33.42 37.98 34.91 22.89 26.74 27.09 28.07 26.34 20.77 24.43 27.35 24.20 14.70 19.76 21.80 26.71 32.13 29.72 28.43 30.12 29.11 29.66 29.84 30.88
39.77 32.72 33.95 29.17 28.45 30.66 32.21 32.66 31.73 30.14 34.86 37.03 33.55 34.66 36.50 29.80 28.82 28.87 30.61 30.32 32.80 35.64 31.36 30.47 24.32 18.68 20.11 25.54 26.42 26.10 23.83 24.29 22.35 24.75 23.06 30.45 24.75 32.89 32.11 30.98 32.14 31.68 32.31 28.45 28.33
36.33 34.19 35.52 30.66 35.25 34.19 33.99 30.54 33.40 32.81 32.82 32.37 32.60 35.49 36.84 34.75 36.67 30.40 30.61 29.31 29.94 30.70 29.21 29.98 22.81 21.12 21.77 20.76 23.47 22.12 25.37 25.43 25.91 21.67 23.71 25.52 26.81 35.81 37.15 33.61 29.44 30.61 30.21 29.13 29.50
43.49 42.30 40.26 34.83 33.23 32.61 33.30 31.86 33.35 36.24 35.72 36.70 36.61 35.97 36.05 38.36 38.17 35.76 35.77 35.32 34.17 29.70 27.71 28.00 25.05 22.89 23.28 18.20 18.37 23.95 25.70 26.26 25.93 26.42 27.58 23.30 34.06 33.72 31.79 33.14 32.45 33.37 31.71 30.00 30.85
MSLP
1020.59 1020.76 1020.32 1020.35 1020.30 1019.99 1019.92 1019.67 1019.49 1019.48 1019.20 1018.83 1018.54 1018.37 1018.05 1017.67 1017.49 1017.56 1018.23 1018.43 1017.89 1017.28 1017.11 1016.55 1015.88 1015.78 1015.90 1016.53 1016.89 1017.36 1018.89 1019.98 1019.82 1019.91 1019.66 1019.49 1019.55 1019.49 1019.48 1019.63 1019.83 1019.88 1020.10 1020.18 1020.20
1020.68 1020.63 1020.47 1020.17 1020.25 1020.14 1019.87 1019.74 1019.68 1019.42 1019.30 1019.07 1018.86 1018.77 1018.53 1018.00 1017.67 1018.25 1018.32 1017.81 1017.48 1017.32 1017.13 1016.70 1016.40 1016.18 1016.70 1017.33 1017.54 1018.25 1019.64 1019.83 1019.94 1019.92 1019.97 1019.74 1019.77 1019.82 1019.87 1019.99 1020.08 1020.19 1020.37 1020.34 1020.38
1020.91 1020.54 1020.41 1020.11 1020.07 1020.23 1019.86 1019.48 1019.59 1019.37 1019.23 1018.91 1018.66 1018.42 1018.41 1018.42 1018.13 1018.21 1017.95 1017.59 1017.14 1017.15 1017.29 1016.95 1016.64 1016.63 1017.33 1017.80 1018.35 1018.96 1019.68 1020.05 1020.16 1020.12 1020.10 1020.07 1020.09 1020.19 1020.13 1020.16 1020.01 1020.21 1020.35 1020.44 1020.49
1020.88 1020.64 1020.37 1020.15 1019.87 1019.88 1019.91 1019.48 1019.46 1019.44 1019.16 1018.89 1018.81 1018.54 1018.09 1018.22 1018.90 1018.30 1017.79 1017.39 1017.00 1016.79 1017.18 1016.92 1016.62 1016.95 1017.83 1018.41 1018.81 1019.47 1019.95 1019.99 1020.34 1020.22 1020.16 1020.27 1020.45 1020.58 1020.40 1019.91 1019.76 1019.98 1020.25 1020.42 1020.38
1020.61 1020.63 1020.53 1020.21 1019.90 1019.79 1019.67 1019.50 1019.18 1019.20 1019.15 1018.90 1018.73 1018.68 1018.52 1018.42 1018.71 1018.21 1017.85 1017.28 1016.96 1016.86 1017.19 1017.01 1017.06 1017.37 1018.39 1018.77 1019.21 1019.71 1020.18 1020.15 1020.35 1020.33 1020.07 1020.23 1020.55 1020.98 1020.27 1019.83 1019.99 1020.10 1020.24 1020.29 1020.28
1020.57 1020.46 1020.35 1020.22 1019.92 1019.69 1019.52 1019.23 1019.00 1018.94 1019.07 1018.62 1018.60 1018.79 1018.55 1018.45 1018.58 1018.52 1017.99 1017.52 1017.40 1017.19 1017.50 1017.34 1017.50 1017.57 1018.40 1019.17 1019.46 1019.92 1020.18 1020.25 1020.42 1020.38 1020.26 1020.34 1020.55 1021.03 1019.80 1019.58 1020.14 1020.30 1020.21 1020.20 1020.24
1020.34 1020.50 1020.31 1020.06 1019.87 1019.62 1019.41 1019.25 1019.10 1018.80 1018.83 1018.59 1018.58 1018.60 1018.57 1018.68 1018.38 1018.54 1018.27 1017.82 1017.71 1017.70 1017.82 1017.67 1017.67 1017.97 1018.73 1019.29 1019.63 1020.12 1020.55 1020.53 1020.45 1020.36 1020.42 1020.53 1020.36 1020.53 1019.71 1020.04 1020.32 1020.38 1020.19 1020.06 1019.91
1020.20 1020.22 1020.15 1020.00 1019.83 1019.46 1019.10 1019.08 1018.83 1018.65 1018.73 1018.50 1018.51 1018.43 1018.69 1018.44 1018.41 1018.39 1018.28 1017.99 1017.66 1017.70 1018.01 1017.80 1017.72 1018.37 1019.38 1019.55 1019.96 1020.45 1020.78 1021.05 1020.67 1020.51 1020.50 1020.72 1020.41 1019.76 1019.56 1020.15 1020.41 1020.52 1020.34 1019.98 1019.59
1020.08 1019.96 1019.92 1019.81 1019.55 1019.38 1018.74 1018.77 1018.72 1018.54 1018.48 1018.49 1018.55 1018.65 1018.80 1018.45 1018.62 1018.70 1018.63 1018.49 1018.20 1018.18 1018.01 1017.84 1018.10 1019.42 1020.02 1020.59 1020.95 1021.15 1021.18 1021.15 1020.91 1020.75 1020.92 1020.94 1020.38 1019.56 1019.60 1020.14 1020.48 1020.42 1020.26 1019.83 1019.50
1019.88 1019.83 1019.62 1019.58 1019.53 1019.13 1018.61 1018.59 1018.40 1018.62 1018.16 1018.43 1018.37 1019.21 1019.05 1018.88 1018.72 1018.77 1018.77 1018.48 1018.40 1018.63 1018.70 1018.55 1019.33 1020.48 1021.26 1021.42 1021.56 1021.56 1021.52 1021.37 1021.33 1021.37 1021.43 1021.32 1020.25 1019.70 1019.44 1019.80 1019.91 1020.02 1020.01 1019.86 1019.61
1019.81 1019.70 1019.46 1019.27 1019.26 1018.93 1018.94 1018.35 1019.24 1019.23 1018.96 1019.31 1019.10 1019.30 1019.24 1019.10 1018.86 1018.75 1018.92 1018.66 1018.75 1019.37 1019.37 1019.79 1020.49 1021.50 1021.98 1021.80 1021.48 1021.53 1021.95 1022.06 1021.65 1021.81 1021.80 1021.32 1020.51 1019.62 1019.06 1019.23 1019.37 1019.61 1019.70 1019.50 1019.33
1019.61 1019.44 1019.61 1018.88 1019.12 1018.70 1019.31 1018.70 1018.83 1018.62 1019.30 1019.30 1019.42 1019.26 1019.30 1019.55 1019.37 1019.20 1018.79 1018.99 1019.55 1020.15 1020.43 1020.82 1021.58 1022.14 1021.95 1022.02 1021.85 1022.01 1022.38 1022.55 1022.24 1022.14 1022.59 1021.25 1020.17 1019.00 1018.62 1018.43 1018.51 1018.89 1019.09 1019.09 1019.14
1019.18 1019.36 1019.21 1019.15 1018.83 1018.64 1018.87 1018.68 1018.59 1018.47 1018.95 1019.34 1019.26 1019.29 1019.38 1019.79 1019.69 1019.54 1019.40 1019.40 1020.21 1021.01 1021.68 1022.06 1022.88 1022.71 1022.45 1022.46 1022.41 1022.84 1023.12 1023.39 1023.69 1023.02 1022.50 1022.06 1020.22 1018.74 1018.15 1017.99 1018.00 1018.17 1018.34 1018.55 1018.80
1018.94 1019.01 1019.06 1019.21 1018.99 1018.51 1018.62 1018.38 1018.61 1018.63 1019.53 1019.35 1019.22 1019.11 1019.40 1019.44 1020.03 1019.71 1019.66 1020.05 1020.54 1021.63 1022.43 1023.10 1023.19 1023.03 1023.08 1023.29 1023.30 1023.42 1023.69 1023.96 1024.07 1024.24 1023.62 1022.67 1021.16 1019.05 1018.35 1018.03 1018.01 1017.98 1018.19 1018.48 1018.69
1018.58 1018.77 1018.95 1019.10 1018.78 1018.65 1018.76 1018.34 1018.49 1018.99 1019.72 1019.19 1019.17 1019.35 1019.30 1019.53 1019.67 1019.98 1019.91 1019.95 1021.01 1021.92 1022.90 1023.65 1023.65 1023.47 1023.37 1023.83 1023.98 1024.15 1024.12 1024.28 1024.54 1024.73 1024.39 1023.25 1022.71 1019.15 1018.43 1018.07 1017.85 1017.67 1017.95 1018.31 1018.53
1018.18 1018.59 1018.76 1018.92 1019.03 1018.36 1018.59 1018.34 1018.84 1020.05 1019.59 1019.33 1019.11 1019.37 1019.64 1019.47 1019.50 1020.05 1020.24 1020.28 1021.30 1022.29 1023.38 1024.03 1024.11 1024.22 1024.13 1024.02 1024.11 1024.56 1024.67 1024.77 1024.99 1025.34 1024.82 1023.56 1023.04 1019.70 1018.54 1017.83 1017.68 1017.54 1017.69 1018.09 1018.30
1017.71 1018.20 1018.69 1018.45 1018.37 1018.24 1018.48 1019.03 1020.40 1019.95 1019.39 1019.32 1019.04 1019.13 1019.29 1019.61 1019.71 1020.05 1020.64 1020.87 1021.71 1023.05 1024.34 1024.64 1024.62 1024.57 1024.62 1024.66 1024.55 1024.72 1025.16 1025.47 1025.99 1025.91 1025.12 1023.80 1022.97 1019.27 1017.98 1017.48 1017.38 1017.50 1017.77 1017.91 1018.04
1017.22 1017.82 1018.20 1018.27 1017.92 1018.32 1018.75 1019.98 1020.41 1018.86 1018.74 1018.31 1018.50 1019.05 1019.06 1019.18 1019.69 1020.07 1020.71 1021.33 1021.71 1022.61 1024.59 1025.05 1025.19 1025.25 1025.24 1025.28 1025.06 1025.07 1025.47 1026.22 1026.98 1027.11 1025.84 1023.91 1021.79 1018.69 1017.60 1017.11 1017.11 1017.20 1017.40 1017.68 1018.01
1016.94 1017.91 1018.12 1017.90 1018.00 1018.53 1018.88 1020.38 1018.64 1017.84 1017.35 1017.72 1018.40 1018.96 1019.10 1019.00 1019.22 1019.93 1020.39 1021.09 1021.34 1022.00 1023.14 1024.55 1025.42 1025.62 1025.65 1025.68 1025.80 1025.48 1025.81 1026.23 1026.85 1027.89 1026.43 1023.25 1020.56 1018.30 1017.60 1017.23 1017.08 1017.20 1017.36 1017.58 1017.88
1016.37 1017.65 1017.65 1017.35 1017.92 1018.63 1019.30 1018.36 1017.67 1016.62 1016.46 1016.72 1017.03 1017.42 1018.28 1018.66 1019.24 1019.67 1020.20 1020.28 1021.15 1021.75 1022.34 1023.72 1025.16 1026.07 1025.95 1025.94 1025.97 1025.73 1025.95 1026.40 1026.88 1027.44 1026.54 1023.28 1021.31 1018.88 1017.78 1017.41 1017.41 1017.57 1017.67 1017.75 1017.92
1015.67 1017.38 1017.31 1017.19 1017.95 1018.90 1018.94 1018.12 1016.93 1016.00 1015.52 1016.08 1016.09 1016.79 1017.18 1017.75 1018.50 1018.99 1019.63 1020.26 1020.68 1021.82 1022.31 1023.36 1024.26 1026.53 1026.40 1026.15 1026.01 1026.33 1026.05 1026.51 1026.91 1027.01 1026.81 1024.54 1020.64 1017.82 1017.45 1017.22 1017.40 1017.51 1017.66 1017.86 1018.24
1014.79 1016.57 1017.19 1017.22 1018.54 1018.38 1018.03 1017.32 1016.01 1015.67 1015.48 1015.25 1015.44 1015.63 1016.29 1017.12 1017.89 1018.64 1019.20 1020.10 1020.17 1020.99 1022.15 1022.67 1023.91 1026.00 1026.21 1026.10 1026.06 1026.09 1025.93 1025.99 1026.91 1027.37 1027.04 1025.32 1020.35 1017.29 1017.24 1017.17 1017.39 1017.49 1017.76 1017.91 1018.38
1014.15 1016.06 1017.24 1017.32 1017.65 1018.14 1017.69 1016.79 1015.83 1015.55 1015.08 1015.02 1015.19 1014.99 1015.46 1016.33 1017.67 1018.54 1019.41 1020.25 1020.53 1020.85 1021.31 1022.11 1023.79 1025.26 1026.13 1026.64 1026.26 1026.17 1025.88 1025.83 1026.41 1026.81 1026.47 1025.08 1020.13 1017.75 1017.58 1017.59 1017.66 1017.96 1018.00 1018.32 1018.69
1013.23 1015.69 1017.10 1017.68 1017.13 1016.61 1016.77 1016.18 1015.71 1014.96 1014.59 1014.38 1014.54 1014.78 1015.50 1016.38 1017.25 1018.65 1019.95 1020.67 1020.91 1021.01 1021.30 1021.71 1023.40 1024.39 1024.99 1024.84 1024.86 1025.85 1025.70 1025.73 1025.93 1026.41 1025.50 1023.22 1019.75 1018.10 1017.69 1017.89 1017.73 1018.03 1018.06 1018.41 1018.76
1011.81 1013.19 1013.86 1015.86 1016.20 1015.92 1015.63 1015.18 1015.26 1014.74 1014.49 1014.34 1014.62 1014.44 1014.82 1016.66 1017.68 1018.64 1019.92 1020.96 1021.34 1021.47 1021.73 1022.12 1023.44 1024.34 1024.63 1024.33 1024.42 1024.49 1024.68 1025.03 1025.18 1024.35 1023.95 1020.82 1020.22 1017.43 1016.96 1017.49 1017.32 1017.38 1017.70 1018.25 1018.63
1010.86 1011.69 1013.47 1013.47 1013.66 1015.01 1014.64 1013.74 1013.53 1013.67 1013.73 1014.03 1014.06 1014.05 1014.49 1015.20 1015.52 1017.37 1018.65 1020.05 1020.14 1021.77 1022.08 1022.30 1023.65 1024.33 1024.82 1024.69 1024.51 1024.07 1023.55 1023.81 1023.56 1023.45 1022.46 1020.89 1019.06 1016.15 1015.96 1016.32 1016.91 1017.01 1017.36 1017.80 1017.87
1010.07 1010.49 1010.79 1012.13 1012.70 1013.73 1012.28 1012.33 1012.54 1012.91 1013.07 1012.77 1013.32 1014.00 1014.85 1014.67 1015.36 1016.18 1017.03 1017.50 1018.34 1019.79 1021.59 1022.40 1023.13 1024.18 1024.55 1024.20 1023.81 1022.90 1020.71 1021.23 1021.24 1020.77 1020.38 1019.89 1016.15 1015.58 1015.45 1015.69 1015.83 1015.95 1016.24 1016.67 1016.91
Wind_Speed
5 5 5 6 6 5 6 6 6 8 8 8 9 9 8 9 8 6 6 6 8 15 11 8 1 4 4 3 5 3 5 2 4 5 3 1 1 4 1 1 2 2 3 2 3
4 5 5 5 5 6 6 6 7 8 8 8 9 10 8 7 3 6 4 11 10 10 4 5 4 6 4 4 4 6 4 5 1 2 2 1 1 2 1 2 4 1 1 1 1
5 4 5 6 6 7 6 6 7 7 8 6 7 6 6 6 2 3 10 15 11 5 3 2 2 0 4 4 4 2 3 4 1 3 2 1 1 5 2 5 6 7 6 3 2
4 5 5 6 5 6 7 6 7 7 7 7 8 7 3 1 1 3 13 15 13 2 4 3 2 3 4 3 4 6 4 5 4 0 2 1 4 7 5 8 4 7 5 3 4
2 5 7 7 8 7 7 6 6 6 7 7 7 7 1 5 1 6 13 11 4 1 2 1 2 4 5 3 3 4 3 4 3 4 3 2 3 5 11 10 4 5 6 7 6
3 4 5 7 8 9 9 7 5 6 8 6 6 7 2 2 3 7 8 7 5 4 4 5 2 3 6 3 4 2 3 4 3 2 2 3 2 5 7 2 7 7 9 9 8
3 4 6 7 8 9 10 10 10 6 7 6 6 1 5 3 2 6 7 3 5 3 2 2 2 4 3 4 4 6 3 3 3 2 2 1 2 8 10 2 7 9 9 9 10
4 4 6 7 9 10 11 12 10 7 7 5 4 1 1 2 2 3 6 4 6 4 2 2 5 7 4 3 4 2 3 3 3 1 3 2 8 7 5 7 10 10 9 9 11
7 5 5 6 8 10 10 11 9 8 5 6 1 1 2 2 2 4 2 3 6 3 3 2 5 4 4 4 4 5 2 3 4 2 3 2 8 6 3 5 10 9 9 9 8
8 6 5 6 9 9 10 4 5 6 2 2 1 3 2 2 1 2 3 3 4 3 4 5 6 4 5 4 3 3 1 3 4 1 3 5 17 11 8 7 13 8 9 9 8
9 8 6 5 8 9 6 3 4 3 9 2 1 1 1 2 1 5 3 5 2 6 2 4 6 2 3 1 2 3 1 3 3 1 4 7 10 13 9 5 7 8 8 6 6
10 8 8 5 8 7 2 3 2 2 5 1 1 2 1 2 1 5 3 4 3 2 3 6 2 2 1 0 2 3 1 3 6 2 3 7 17 10 5 6 7 8 7 6 4
10 8 7 7 7 2 4 2 2 1 4 2 1 2 1 1 1 2 3 3 5 4 4 4 1 3 0 3 3 2 2 1 4 8 4 7 8 5 3 3 3 5 4 3 5
11 9 6 6 2 1 3 4 3 1 6 4 3 2 1 2 3 1 2 2 5 5 3 4 2 1 1 2 1 2 2 0 3 5 3 3 6 4 3 5 5 8 6 6 6
11 9 7 1 2 2 0 5 4 3 2 3 3 2 1 3 5 5 1 3 5 5 5 2 0 2 2 1 3 2 0 0 1 1 3 3 3 8 3 3 8 8 7 6 6
12 10 6 2 1 2 3 4 4 9 8 3 4 5 4 1 2 2 2 5 4 5 6 2 1 2 1 0 1 2 1 3 3 2 4 2 4 7 2 4 4 4 5 6 6
14 11 6 3 3 4 4 3 7 6 4 5 6 6 4 4 3 3 4 4 5 6 2 5 2 1 2 1 1 2 4 5 8 6 6 2 3 10 4 4 4 6 6 6 5
15 11 4 2 3 5 3 6 5 5 7 3 4 5 7 6 2 4 5 3 3 5 4 5 6 1 4 1 2 2 3 7 5 2 6 3 6 5 5 3 3 5 4 3 3
16 3 1 3 4 2 5 4 12 9 8 10 4 5 3 3 5 4 7 6 8 8 8 5 3 2 3 2 1 1 1 1 7 1 3 4 8 6 4 6 6 6 5 4 3
7 4 3 6 6 3 4 9 6 5 7 3 8 6 8 8 6 6 8 3 7 5 2 5 3 2 1 1 1 0 2 3 4 1 5 6 6 6 5 7 7 7 8 5 3
7 5 1 6 4 3 7 8 6 5 5 7 7 6 5 9 7 7 9 1 4 5 4 5 5 3 2 4 5 1 1 2 2 3 5 2 8 8 7 6 9 9 8 7 6
5 4 2 3 4 2 5 8 7 6 2 3 4 4 8 7 6 6 10 2 8 8 8 6 6 3 6 2 1 2 2 4 5 5 1 2 11 3 7 5 5 8 8 5 5
8 4 1 2 10 5 3 4 5 5 6 7 7 3 3 8 6 4 5 3 5 6 9 9 1 3 6 4 4 3 4 3 4 3 6 5 9 2 5 7 7 8 8 7 5
6 6 2 1 0 8 7 5 7 4 4 5 5 4 4 3 4 7 4 2 1 2 1 5 4 7 8 5 5 3 4 5 5 4 4 9 12 12 8 7 9 8 8 8 8
4 5 6 11 10 5 7 12 9 8 3 6 1 5 8 5 3 4 3 3 3 1 1 3 5 3 3 2 3 5 5 8 9 7 8 11 11 19 7 8 9 8 6 5 9
6 7 2 1 14 13 9 10 19 7 10 7 6 11 6 8 10 12 10 6 8 4 5 2 3 3 3 3 2 6 8 10 12 2 12 11 24 22 21 8 5 9 7 8 9
1 2 5 9 12 16 18 10 14 10 8 4 10 8 6 4 4 3 2 8 11 12 8 8 7 4 4 1 3 9 11 16 6 6 9 9 21 7 6 6 6 7 7 8 8
Wind_Direction
21 0 24 10 1 351 343 347 340 337 342 342 340 339 345 353 14 35 40 284 294 305 315 277 274 360 46 41 39 89 62 149 178 163 185 10 136 326 357 167 224 212 165 166 153
4 1 3 16 355 343 341 343 336 331 329 336 339 339 346 344 103 54 238 323 309 307 310 18 23 4 50 12 18 73 95 188 348 124 134 193 131 237 359 304 263 250 129 79 132
337 350 354 2 357 334 332 335 318 317 318 322 324 328 331 323 80 329 326 332 328 308 265 297 281 150 63 26 360 62 139 144 334 156 139 31 36 329 268 262 212 213 216 244 238
331 343 345 343 343 334 326 327 321 314 308 312 315 316 319 356 220 292 329 327 325 301 286 318 12 69 70 60 5 91 44 137 192 252 102 91 314 314 226 239 204 203 197 214 251
333 329 339 339 335 331 321 319 307 302 301 312 315 309 281 54 239 299 326 330 342 98 14 20 62 105 120 103 65 85 154 99 179 189 160 134 281 252 272 260 219 210 218 242 248
302 317 326 334 334 331 322 315 301 298 292 300 308 309 244 111 324 317 332 340 18 41 13 28 94 112 100 69 78 107 115 147 223 266 261 202 240 35 287 217 214 237 249 250 242
260 307 323 328 329 330 324 315 303 287 289 295 301 278 55 146 330 316 345 331 356 8 84 34 289 69 125 98 148 126 85 346 245 238 263 185 299 224 243 201 227 252 258 263 250
249 285 306 321 325 329 330 318 306 287 286 286 300 103 139 278 283 1 343 325 3 19 37 18 67 94 60 126 58 89 60 27 257 275 211 89 267 261 254 186 247 268 277 273 265
250 263 294 310 315 318 328 319 296 284 270 300 247 139 147 321 35 317 14 11 319 331 346 359 63 89 40 74 39 8 229 214 290 262 281 202 265 258 152 194 261 262 272 277 291
246 260 277 301 310 322 325 286 299 315 326 278 66 19 298 210 282 340 324 28 49 322 4 46 53 72 38 67 220 200 266 286 254 283 280 271 265 275 264 226 245 255 278 289 299
243 251 269 298 311 335 359 47 36 346 44 336 22 85 28 293 305 25 11 7 61 39 91 12 69 129 185 203 149 142 219 264 263 54 333 242 270 272 266 255 259 257 267 276 319
236 245 264 292 310 338 138 127 218 175 112 75 88 80 36 300 82 6 359 79 59 76 339 24 102 212 236 325 114 78 255 274 281 253 351 302 291 277 236 231 205 230 250 263 281
224 241 255 292 316 41 175 225 78 320 103 215 237 124 216 324 145 352 5 98 90 58 11 119 81 319 350 40 84 44 219 228 253 323 253 320 288 352 25 234 211 243 240 274 272
217 223 243 297 336 205 228 119 88 26 71 211 211 208 192 155 29 341 45 105 56 142 99 85 287 60 26 54 19 283 159 293 313 13 279 37 279 324 341 288 272 269 274 269 273
208 211 221 188 293 162 206 118 103 47 60 164 156 124 179 173 143 10 25 42 118 116 110 208 1 55 94 62 350 281 321 238 0 320 346 337 60 268 338 297 274 272 253 257 258
198 201 188 159 188 216 127 102 61 48 251 203 135 172 141 178 98 114 87 57 128 90 39 103 286 35 104 274 105 321 312 41 56 44 28 278 109 288 215 217 289 280 251 251 245
187 189 174 153 213 143 115 60 53 154 333 216 189 161 179 157 124 150 160 129 140 83 304 349 340 358 38 22 33 80 46 338 354 11 215 11 34 245 249 247 228 235 240 222 216
173 165 238 226 138 132 82 58 122 238 207 155 133 118 177 156 148 157 133 155 212 106 100 137 319 17 2 26 174 73 130 151 228 282 275 0 238 235 217 186 200 202 203 184 235
144 129 200 223 150 115 92 123 202 201 163 150 85 112 209 217 142 159 189 193 189 173 153 125 285 323 47 350 36 252 42 160 102 32 28 253 285 302 216 243 230 230 214 227 194
136 156 208 150 141 97 85 227 214 189 131 162 160 161 171 186 159 179 180 189 174 173 124 194 75 281 324 351 346 310 142 49 3 357 302 293 284 246 250 233 242 251 241 221 197
140 152 160 125 112 88 200 227 216 233 148 152 186 147 183 173 173 180 188 326 164 137 105 136 107 281 33 196 180 44 36 74 118 131 180 287 274 207 215 204 205 232 236 224 228
147 161 174 155 132 194 171 191 188 177 163 189 150 130 165 156 154 175 182 313 155 155 156 190 133 164 205 224 7 300 222 158 122 270 290 152 273 205 222 214 203 226 238 222 205
134 113 48 51 192 213 279 247 200 151 188 171 198 197 176 161 119 131 127 348 157 154 161 188 319 38 347 3 7 230 206 153 115 86 213 145 264 344 276 263 245 234 243 246 203
126 134 103 232 298 166 152 198 195 219 173 169 165 129 112 92 34 145 127 179 127 165 103 105 103 163 191 192 127 164 216 186 141 124 205 228 274 285 271 256 262 250 253 245 227
164 182 183 180 215 170 186 165 176 185 223 191 173 210 162 121 73 127 115 112 24 173 92 145 171 137 258 206 187 212 180 185 192 203 184 267 236 264 256 239 244 247 249 219 243
145 146 146 132 148 177 190 204 195 181 150 215 175 194 196 155 182 182 143 190 183 162 177 152 172 115 310 12 89 267 224 207 219 212 267 282 284 269 275 255 265 263 253 241 242
123 70 145 161 158 177 209 177 195 165 228 195 168 136 192 211 95 39 39 132 147 145 167 150 142 121 245 352 13 301 221 198 192 200 186 202 243 278 258 239 259 272 254 235 227